{"data":{"norad_id":47773,"intl_designator":"2021-017BD","name":"STARLINK-2196","alt_names":[],"object_type":"PAYLOAD","status":"ACTIVE","operator":null,"country":"US","launch_date":"2021-03-04","launch_site_code":"AFETR","launch_vehicle":null,"mission":null,"orbit_class":"UNKNOWN","rcs_meters":null,"size_class":null,"mass_kg":null,"dimensions":null,"purposes":["comms"],"wikipedia_slug":null,"has_3d_model":false,"image_url":null,"decayed_at":null,"tle_current":{"epoch":"2026-05-25T05:23:33.580608Z","epoch_age_seconds":49489,"freshness":"FRESH","line1":"1 47773U 21017BD  26145.22469422 -.00001130  00000+0 -24624-4 0  9996","line2":"2 47773  53.1570 220.7633 0002134 101.2647 258.8595 15.31709185289387","mean_motion":15.31709185,"eccentricity":0.0002134,"inclination_deg":53.157,"raan_deg":220.7633,"arg_perigee_deg":101.2647,"mean_anomaly_deg":258.8595,"bstar":-2.4624e-5,"rev_number":28938,"period_min":94.012624204509,"perigee_km":469.2510708475,"apogee_km":472.17415986334,"semimajor_km":6848.8496153554,"source":"CELESTRAK","updated_at":"2026-05-25T13:38:16.595024Z"}}}